Time,TemperatureF,DewpointF,PressureIn,WindDirection,WindDirectionDegrees,WindSpeedMPH,WindSpeedGustMPH,Humidity,HourlyPrecipIn,Conditions,Clouds,dailyrainin,SoftwareType,DateUTC
2013-02-09 00:00:00,34.8,27.0,30.15,SW,226,3.0,10.0,73,0.00,,,0.09,Wunderground v.1.15,2013-02-09 05:00:00,
2013-02-09 00:04:00,34.4,27.0,30.16,SW,215,0.0,3.0,74,0.00,,,0.00,Wunderground v.1.15,2013-02-09 05:04:00,
2013-02-09 00:09:00,34.3,27.2,30.17,South,174,4.0,4.0,75,0.00,,,0.00,Wunderground v.1.15,2013-02-09 05:09:00,
2013-02-09 00:14:00,33.8,27.0,30.16,SW,216,3.0,3.0,76,0.00,,,0.00,Wunderground v.1.15,2013-02-09 05:14:00,
2013-02-09 00:19:00,33.5,27.1,30.17,SSW,205,0.0,4.0,77,0.00,,,0.00,Wunderground v.1.15,2013-02-09 05:19:00,
2013-02-09 00:25:00,33.0,26.9,30.17,SSW,201,1.0,3.0,78,0.00,,,0.00,Wunderground v.1.15,2013-02-09 05:25:00,
2013-02-09 00:30:00,32.8,26.7,30.17,West,279,1.0,1.0,78,0.00,,,0.00,Wunderground v.1.15,2013-02-09 05:30:00,
2013-02-09 00:35:00,32.6,26.8,30.17,West,280,0.0,1.0,79,0.00,,,0.00,Wunderground v.1.15,2013-02-09 05:35:00,
2013-02-09 00:40:00,32.5,26.7,30.16,WSW,251,0.0,1.0,79,0.00,,,0.00,Wunderground v.1.15,2013-02-09 05:40:00,
2013-02-09 00:45:00,32.3,26.5,30.17,SSW,209,1.0,4.0,79,0.00,,,0.00,Wunderground v.1.15,2013-02-09 05:45:00,
2013-02-09 00:50:00,32.1,26.6,30.17,South,190,0.0,1.0,80,0.00,,,0.00,Wunderground v.1.15,2013-02-09 05:50:00,
2013-02-09 00:56:00,32.0,26.5,30.17,West,265,0.0,3.0,80,0.00,,,0.00,Wunderground v.1.15,2013-02-09 05:56:00,
2013-02-09 01:01:00,31.9,26.7,30.17,SW,223,6.0,6.0,81,0.00,,,0.00,Wunderground v.1.15,2013-02-09 06:01:00,
2013-02-09 01:06:00,31.9,26.7,30.17,South,172,8.0,8.0,81,0.00,,,0.00,Wunderground v.1.15,2013-02-09 06:06:00,
2013-02-09 01:11:00,32.1,26.6,30.17,SW,219,5.0,9.0,80,0.00,,,0.00,Wunderground v.1.15,2013-02-09 06:11:00,
2013-02-09 01:16:00,32.3,26.5,30.17,SSW,207,5.0,9.0,79,0.00,,,0.00,Wunderground v.1.15,2013-02-09 06:16:00,
2013-02-09 01:22:00,32.3,26.8,30.17,South,188,6.0,6.0,80,0.00,,,0.00,Wunderground v.1.15,2013-02-09 06:22:00,
2013-02-09 01:27:00,32.2,26.7,30.18,SSW,207,6.0,6.0,80,0.00,,,0.00,Wunderground v.1.15,2013-02-09 06:27:00,
2013-02-09 01:32:00,32.0,26.5,30.18,SSW,205,5.0,5.0,80,0.00,,,0.00,Wunderground v.1.15,2013-02-09 06:32:00,
2013-02-09 01:37:00,31.9,26.7,30.18,SW,235,1.0,7.0,81,0.00,,,0.00,Wunderground v.1.15,2013-02-09 06:37:00,
2013-02-09 01:42:00,31.9,26.7,30.18,SE,138,2.0,3.0,81,0.00,,,0.00,Wunderground v.1.15,2013-02-09 06:42:00,
2013-02-09 01:48:00,31.7,26.5,30.18,SW,219,1.0,3.0,81,0.00,,,0.00,Wunderground v.1.15,2013-02-09 06:48:00,
2013-02-09 01:53:00,31.6,26.4,30.18,SW,227,5.0,5.0,81,0.00,,,0.00,Wunderground v.1.15,2013-02-09 06:53:00,
2013-02-09 01:58:00,31.7,26.5,30.18,SSW,198,1.0,8.0,81,0.00,,,0.00,Wunderground v.1.15,2013-02-09 06:58:00,
2013-02-09 02:03:00,31.7,26.5,30.18,West,281,6.0,7.0,81,0.00,,,0.00,Wunderground v.1.15,2013-02-09 07:03:00,
2013-02-09 02:08:00,31.7,26.2,30.18,West,271,4.0,7.0,80,0.00,,,0.00,Wunderground v.1.15,2013-02-09 07:08:00,
2013-02-09 02:13:00,31.7,26.5,30.19,West,267,0.0,5.0,81,0.00,,,0.00,Wunderground v.1.15,2013-02-09 07:13:00,
2013-02-09 02:18:00,31.7,26.2,30.19,West,263,7.0,8.0,80,0.00,,,0.00,Wunderground v.1.15,2013-02-09 07:18:00,
2013-02-09 02:23:00,31.9,26.1,30.19,South,191,6.0,10.0,79,0.00,,,0.00,Wunderground v.1.15,2013-02-09 07:23:00,
2013-02-09 02:28:00,32.1,26.3,30.20,SSW,205,3.0,10.0,79,0.00,,,0.00,Wunderground v.1.15,2013-02-09 07:28:00,
2013-02-09 02:33:00,32.1,26.3,30.20,South,189,3.0,9.0,79,0.00,,,0.00,Wunderground v.1.15,2013-02-09 07:33:00,
2013-02-09 02:38:00,32.1,26.3,30.20,South,172,1.0,9.0,79,0.00,,,0.00,Wunderground v.1.15,2013-02-09 07:38:00,
2013-02-09 02:43:00,32.0,25.9,30.20,SSW,194,2.0,10.0,78,0.00,,,0.00,Wunderground v.1.15,2013-02-09 07:43:00,
2013-02-09 02:48:00,32.2,26.1,30.20,SSW,200,0.0,10.0,78,0.00,,,0.00,Wunderground v.1.15,2013-02-09 07:48:00,
2013-02-09 02:53:00,32.3,26.2,30.20,South,175,4.0,7.0,78,0.00,,,0.00,Wunderground v.1.15,2013-02-09 07:53:00,
2013-02-09 02:58:00,32.3,25.9,30.19,South,169,0.0,8.0,77,0.00,,,0.00,Wunderground v.1.15,2013-02-09 07:58:00,
2013-02-09 03:03:00,32.3,25.9,30.19,SSW,197,3.0,9.0,77,0.00,,,0.00,Wunderground v.1.15,2013-02-09 08:03:00,
2013-02-09 03:08:00,32.2,25.8,30.19,SSW,196,0.0,10.0,77,0.00,,,0.00,Wunderground v.1.15,2013-02-09 08:08:00,
2013-02-09 03:13:00,32.3,25.9,30.19,SW,223,0.0,10.0,77,0.00,,,0.00,Wunderground v.1.15,2013-02-09 08:13:00,
2013-02-09 03:18:00,32.4,26.0,30.19,South,180,3.0,10.0,77,0.00,,,0.00,Wunderground v.1.15,2013-02-09 08:18:00,
2013-02-09 03:23:00,32.5,25.8,30.20,SSW,192,0.0,9.0,76,0.00,,,0.00,Wunderground v.1.15,2013-02-09 08:23:00,
2013-02-09 03:28:00,32.5,25.8,30.20,West,259,0.0,9.0,76,0.00,,,0.00,Wunderground v.1.15,2013-02-09 08:28:00,
2013-02-09 03:33:00,32.3,25.6,30.20,WSW,256,2.0,7.0,76,0.00,,,0.00,Wunderground v.1.15,2013-02-09 08:33:00,
2013-02-09 03:38:00,32.3,25.6,30.20,SW,236,0.0,9.0,76,0.00,,,0.00,Wunderground v.1.15,2013-02-09 08:38:00,
2013-02-09 03:44:00,32.2,25.5,30.20,NW,308,4.0,6.0,76,0.00,,,0.00,Wunderground v.1.15,2013-02-09 08:44:00,
2013-02-09 03:49:00,32.0,25.3,30.20,West,270,0.0,9.0,76,0.00,,,0.00,Wunderground v.1.15,2013-02-09 08:49:00,
2013-02-09 03:54:00,31.8,25.1,30.20,WNW,296,2.0,3.0,76,0.00,,,0.00,Wunderground v.1.15,2013-02-09 08:54:00,
2013-02-09 03:59:00,31.6,24.9,30.21,SW,218,0.0,5.0,76,0.00,,,0.00,Wunderground v.1.15,2013-02-09 08:59:00,
2013-02-09 04:04:00,31.5,25.1,30.21,West,280,0.0,4.0,77,0.00,,,0.00,Wunderground v.1.15,2013-02-09 09:04:00,
2013-02-09 04:09:00,31.4,24.7,30.21,WSW,255,2.0,6.0,76,0.00,,,0.00,Wunderground v.1.15,2013-02-09 09:09:00,
2013-02-09 04:14:00,31.4,24.7,30.21,WNW,282,0.0,3.0,76,0.00,,,0.00,Wunderground v.1.15,2013-02-09 09:14:00,
2013-02-09 04:19:00,31.3,24.9,30.22,WSW,242,0.0,3.0,77,0.00,,,0.00,Wunderground v.1.15,2013-02-09 09:19:00,
2013-02-09 04:24:00,31.1,24.4,30.22,WSW,244,0.0,3.0,76,0.00,,,0.00,Wunderground v.1.15,2013-02-09 09:24:00,
2013-02-09 04:29:00,31.0,24.3,30.22,WSW,239,2.0,3.0,76,0.00,,,0.00,Wunderground v.1.15,2013-02-09 09:29:00,
2013-02-09 04:34:00,31.0,24.3,30.22,SW,214,1.0,4.0,76,0.00,,,0.00,Wunderground v.1.15,2013-02-09 09:34:00,
2013-02-09 04:39:00,31.0,24.3,30.22,WSW,243,2.0,6.0,76,0.00,,,0.00,Wunderground v.1.15,2013-02-09 09:39:00,
2013-02-09 04:44:00,31.1,24.4,30.22,West,279,0.0,4.0,76,0.00,,,0.00,Wunderground v.1.15,2013-02-09 09:44:00,
2013-02-09 04:49:00,31.2,24.5,30.23,WNW,299,3.0,6.0,76,0.00,,,0.00,Wunderground v.1.15,2013-02-09 09:49:00,
2013-02-09 04:54:00,31.3,24.6,30.23,WSW,238,0.0,5.0,76,0.00,,,0.00,Wunderground v.1.15,2013-02-09 09:54:00,
2013-02-09 04:59:00,31.3,24.6,30.23,WSW,242,0.0,5.0,76,0.00,,,0.00,Wunderground v.1.15,2013-02-09 09:59:00,
2013-02-09 05:04:00,31.1,24.4,30.24,SSW,200,0.0,5.0,76,0.00,,,0.00,Wunderground v.1.15,2013-02-09 10:04:00,
2013-02-09 05:09:00,31.0,24.3,30.24,SW,227,0.0,5.0,76,0.00,,,0.00,Wunderground v.1.15,2013-02-09 10:09:00,
2013-02-09 05:14:00,30.8,24.1,30.24,SW,227,0.0,1.0,76,0.00,,,0.00,Wunderground v.1.15,2013-02-09 10:14:00,
2013-02-09 05:19:00,30.5,24.1,30.24,SW,227,0.0,2.0,77,0.00,,,0.00,Wunderground v.1.15,2013-02-09 10:19:00,
2013-02-09 05:24:00,30.4,24.1,30.24,WSW,242,0.0,4.0,77,0.00,,,0.00,Wunderground v.1.15,2013-02-09 10:24:00,
2013-02-09 05:29:00,30.5,24.1,30.25,WSW,242,0.0,4.0,77,0.00,,,0.00,Wunderground v.1.15,2013-02-09 10:29:00,
2013-02-09 05:34:00,30.4,24.1,30.25,WSW,247,0.0,3.0,77,0.00,,,0.00,Wunderground v.1.15,2013-02-09 10:34:00,
2013-02-09 05:39:00,30.2,23.9,30.25,WSW,247,0.0,3.0,77,0.00,,,0.00,Wunderground v.1.15,2013-02-09 10:39:00,
2013-02-09 05:44:00,30.0,24.0,30.25,WSW,247,0.0,1.0,78,0.00,,,0.00,Wunderground v.1.15,2013-02-09 10:44:00,
2013-02-09 05:49:00,29.6,23.9,30.26,WSW,247,0.0,2.0,79,0.00,,,0.00,Wunderground v.1.15,2013-02-09 10:49:00,
2013-02-09 05:54:00,29.3,23.6,30.26,WSW,247,0.0,1.0,79,0.00,,,0.00,Wunderground v.1.15,2013-02-09 10:54:00,
2013-02-09 05:59:00,28.9,23.5,30.26,WSW,247,0.0,1.0,80,0.00,,,0.00,Wunderground v.1.15,2013-02-09 10:59:00,
2013-02-09 06:04:00,28.7,23.3,30.26,WSW,247,0.0,0.0,80,0.00,,,0.00,Wunderground v.1.15,2013-02-09 11:04:00,
2013-02-09 06:09:00,28.5,23.4,30.26,WSW,247,1.0,1.0,81,0.00,,,0.00,Wunderground v.1.15,2013-02-09 11:09:00,
2013-02-09 06:14:00,28.3,23.5,30.27,WSW,247,0.0,2.0,82,0.00,,,0.00,Wunderground v.1.15,2013-02-09 11:14:00,
2013-02-09 06:19:00,28.0,23.2,30.26,WSW,247,0.0,2.0,82,0.00,,,0.00,Wunderground v.1.15,2013-02-09 11:19:00,
2013-02-09 06:24:00,27.8,23.3,30.27,WSW,247,0.0,0.0,83,0.00,,,0.00,Wunderground v.1.15,2013-02-09 11:24:00,
2013-02-09 06:29:00,27.7,23.2,30.26,WSW,247,0.0,0.0,83,0.00,,,0.00,Wunderground v.1.15,2013-02-09 11:29:00,
2013-02-09 06:34:00,27.4,22.9,30.27,WSW,247,0.0,0.0,83,0.00,,,0.00,Wunderground v.1.15,2013-02-09 11:34:00,
2013-02-09 06:39:00,27.2,22.7,30.27,WSW,247,0.0,0.0,83,0.00,,,0.00,Wunderground v.1.15,2013-02-09 11:39:00,
2013-02-09 06:44:00,27.1,22.9,30.27,WSW,247,0.0,0.0,84,0.00,,,0.00,Wunderground v.1.15,2013-02-09 11:44:00,
2013-02-09 06:49:00,27.0,23.1,30.27,WSW,247,0.0,1.0,85,0.00,,,0.00,Wunderground v.1.15,2013-02-09 11:49:00,
2013-02-09 06:54:00,27.2,23.6,30.27,WSW,247,0.0,0.0,86,0.00,,,0.00,Wunderground v.1.15,2013-02-09 11:54:00,
2013-02-09 06:59:00,27.2,23.3,30.27,WSW,247,0.0,0.0,85,0.00,,,0.00,Wunderground v.1.15,2013-02-09 11:59:00,
2013-02-09 07:04:00,27.0,23.1,30.28,WSW,247,0.0,0.0,85,0.00,,,0.00,Wunderground v.1.15,2013-02-09 12:04:00,
2013-02-09 07:09:00,26.9,23.3,30.28,WSW,247,0.0,0.0,86,0.00,,,0.00,Wunderground v.1.15,2013-02-09 12:09:00,
2013-02-09 07:14:00,26.8,23.2,30.28,WSW,247,0.0,0.0,86,0.00,,,0.00,Wunderground v.1.15,2013-02-09 12:14:00,
2013-02-09 07:19:00,26.6,23.0,30.28,WSW,247,0.0,0.0,86,0.00,,,0.00,Wunderground v.1.15,2013-02-09 12:19:00,
2013-02-09 07:24:00,26.5,22.9,30.28,WSW,247,0.0,0.0,86,0.00,,,0.00,Wunderground v.1.15,2013-02-09 12:24:00,
2013-02-09 07:29:00,26.4,22.8,30.29,WSW,247,0.0,0.0,86,0.00,,,0.00,Wunderground v.1.15,2013-02-09 12:29:00,
2013-02-09 07:34:00,26.3,23.0,30.29,WSW,247,0.0,0.0,87,0.00,,,0.00,Wunderground v.1.15,2013-02-09 12:34:00,
2013-02-09 07:39:00,26.2,22.9,30.29,WSW,247,0.0,0.0,87,0.00,,,0.00,Wunderground v.1.15,2013-02-09 12:39:00,
2013-02-09 07:45:00,26.2,22.9,30.29,WSW,247,0.0,0.0,87,0.00,,,0.00,Wunderground v.1.15,2013-02-09 12:45:00,
2013-02-09 07:50:00,26.2,22.9,30.29,WSW,247,0.0,0.0,87,0.00,,,0.00,Wunderground v.1.15,2013-02-09 12:50:00,
2013-02-09 07:55:00,26.3,23.2,30.29,WSW,246,0.0,0.0,88,0.00,,,0.00,Wunderground v.1.15,2013-02-09 12:55:00,
2013-02-09 08:00:00,26.3,23.2,30.29,WSW,245,0.0,0.0,88,0.00,,,0.00,Wunderground v.1.15,2013-02-09 13:00:00,
2013-02-09 08:05:00,26.5,23.4,30.30,WSW,245,0.0,0.0,88,0.00,,,0.00,Wunderground v.1.15,2013-02-09 13:05:00,
2013-02-09 08:10:00,26.7,23.6,30.30,WSW,245,0.0,0.0,88,0.00,,,0.00,Wunderground v.1.15,2013-02-09 13:10:00,
2013-02-09 08:15:00,26.8,23.7,30.30,WSW,245,0.0,0.0,88,0.00,,,0.00,Wunderground v.1.15,2013-02-09 13:15:00,
2013-02-09 08:20:00,26.7,23.6,30.30,SW,236,0.0,0.0,88,0.00,,,0.00,Wunderground v.1.15,2013-02-09 13:20:00,
2013-02-09 08:25:00,26.7,23.6,30.31,NW,324,0.0,0.0,88,0.00,,,0.00,Wunderground v.1.15,2013-02-09 13:25:00,
2013-02-09 08:30:00,26.7,23.9,30.31,NW,324,0.0,0.0,89,0.00,,,0.00,Wunderground v.1.15,2013-02-09 13:30:00,
2013-02-09 08:35:00,26.8,24.0,30.31,NW,324,0.0,0.0,89,0.00,,,0.00,Wunderground v.1.15,2013-02-09 13:35:00,
2013-02-09 08:40:00,26.9,24.1,30.31,NW,324,0.0,0.0,89,0.00,,,0.00,Wunderground v.1.15,2013-02-09 13:40:00,
2013-02-09 08:45:00,27.1,24.3,30.31,NW,324,0.0,0.0,89,0.00,,,0.00,Wunderground v.1.15,2013-02-09 13:45:00,
2013-02-09 08:50:00,27.3,24.8,30.31,NW,324,0.0,0.0,90,0.00,,,0.00,Wunderground v.1.15,2013-02-09 13:50:00,
2013-02-09 08:55:00,27.6,25.1,30.31,NW,324,0.0,1.0,90,0.00,,,0.00,Wunderground v.1.15,2013-02-09 13:55:00,
2013-02-09 09:00:00,27.8,25.2,30.32,NW,324,0.0,0.0,90,0.00,,,0.00,Wunderground v.1.15,2013-02-09 14:00:00,
2013-02-09 09:05:00,28.0,25.4,30.32,NW,324,0.0,0.0,90,0.00,,,0.00,Wunderground v.1.15,2013-02-09 14:05:00,
2013-02-09 09:10:00,28.3,25.7,30.32,NW,324,0.0,0.0,90,0.00,,,0.00,Wunderground v.1.15,2013-02-09 14:10:00,
2013-02-09 09:15:00,28.6,26.0,30.32,NW,324,0.0,0.0,90,0.00,,,0.00,Wunderground v.1.15,2013-02-09 14:15:00,
2013-02-09 09:20:00,28.8,26.2,30.32,NW,324,0.0,0.0,90,0.00,,,0.00,Wunderground v.1.15,2013-02-09 14:20:00,
2013-02-09 09:25:00,29.0,26.4,30.32,NW,324,0.0,0.0,90,0.00,,,0.00,Wunderground v.1.15,2013-02-09 14:25:00,
2013-02-09 09:30:00,29.3,26.7,30.32,NW,324,0.0,0.0,90,0.00,,,0.00,Wunderground v.1.15,2013-02-09 14:30:00,
2013-02-09 09:35:00,29.7,27.1,30.32,NW,324,0.0,2.0,90,0.00,,,0.00,Wunderground v.1.15,2013-02-09 14:35:00,
2013-02-09 09:40:00,30.1,27.3,30.32,NW,323,0.0,1.0,89,0.00,,,0.00,Wunderground v.1.15,2013-02-09 14:40:00,
2013-02-09 09:45:00,30.4,27.5,30.33,NW,323,0.0,1.0,89,0.00,,,0.00,Wunderground v.1.15,2013-02-09 14:45:00,
2013-02-09 09:50:00,30.7,27.6,30.33,NW,323,0.0,0.0,88,0.00,,,0.00,Wunderground v.1.15,2013-02-09 14:50:00,
2013-02-09 09:55:00,31.0,27.9,30.33,NW,323,0.0,1.0,88,0.00,,,0.00,Wunderground v.1.15,2013-02-09 14:55:00,
2013-02-09 10:00:00,31.4,27.7,30.33,NW,323,0.0,0.0,86,0.00,,,0.00,Wunderground v.1.15,2013-02-09 15:00:00,
2013-02-09 10:05:00,31.8,28.1,30.33,NW,323,0.0,1.0,86,0.00,,,0.00,Wunderground v.1.15,2013-02-09 15:05:00,
2013-02-09 10:10:00,32.4,28.4,30.33,North,355,0.0,1.0,85,0.00,,,0.00,Wunderground v.1.15,2013-02-09 15:10:00,
2013-02-09 10:15:00,33.1,28.5,30.33,North,355,1.0,1.0,83,0.00,,,0.00,Wunderground v.1.15,2013-02-09 15:15:00,
2013-02-09 10:20:00,33.9,29.0,30.33,NNW,346,0.0,2.0,82,0.00,,,0.00,Wunderground v.1.15,2013-02-09 15:20:00,
2013-02-09 10:25:00,34.4,28.6,30.33,NNW,346,0.0,3.0,79,0.00,,,0.00,Wunderground v.1.15,2013-02-09 15:25:00,
2013-02-09 10:30:00,35.2,29.0,30.34,NNW,346,0.0,0.0,78,0.00,,,0.00,Wunderground v.1.15,2013-02-09 15:30:00,
2013-02-09 10:35:00,35.6,29.1,30.34,North,349,0.0,3.0,77,0.00,,,0.00,Wunderground v.1.15,2013-02-09 15:35:00,
2013-02-09 10:40:00,36.0,29.2,30.34,North,349,0.0,1.0,76,0.00,,,0.00,Wunderground v.1.15,2013-02-09 15:40:00,
2013-02-09 10:45:00,36.4,29.6,30.34,North,349,1.0,1.0,76,0.00,,,0.00,Wunderground v.1.15,2013-02-09 15:45:00,
2013-02-09 10:50:00,36.9,29.4,30.34,NNW,348,1.0,2.0,74,0.00,,,0.00,Wunderground v.1.15,2013-02-09 15:50:00,
2013-02-09 10:55:00,37.3,29.4,30.34,NNW,348,0.0,2.0,73,0.00,,,0.00,Wunderground v.1.15,2013-02-09 15:55:00,
2013-02-09 11:00:00,37.7,29.8,30.34,NNW,348,0.0,0.0,73,0.00,,,0.00,Wunderground v.1.15,2013-02-09 16:00:00,
2013-02-09 11:05:00,38.1,29.9,30.35,North,349,1.0,3.0,72,0.00,,,0.00,Wunderground v.1.15,2013-02-09 16:05:00,
2013-02-09 11:10:00,38.6,30.4,30.34,North,349,1.0,1.0,72,0.00,,,0.00,Wunderground v.1.15,2013-02-09 16:10:00,
2013-02-09 11:15:00,38.8,30.2,30.34,North,349,1.0,2.0,71,0.00,,,0.00,Wunderground v.1.15,2013-02-09 16:15:00,
2013-02-09 11:20:00,39.1,30.5,30.34,North,349,0.0,1.0,71,0.00,,,0.00,Wunderground v.1.15,2013-02-09 16:20:00,
2013-02-09 11:25:00,39.4,30.8,30.35,North,349,0.0,3.0,71,0.00,,,0.00,Wunderground v.1.15,2013-02-09 16:25:00,
2013-02-09 11:30:00,39.9,30.9,30.35,North,355,0.0,2.0,70,0.00,,,0.00,Wunderground v.1.15,2013-02-09 16:30:00,
2013-02-09 11:35:00,40.2,30.8,30.35,North,355,2.0,3.0,69,0.00,,,0.00,Wunderground v.1.15,2013-02-09 16:35:00,
2013-02-09 11:40:00,40.5,30.8,30.35,North,355,0.0,1.0,68,0.00,,,0.00,Wunderground v.1.15,2013-02-09 16:40:00,
2013-02-09 11:45:00,40.9,30.8,30.34,North,355,0.0,1.0,67,0.00,,,0.00,Wunderground v.1.15,2013-02-09 16:45:00,
2013-02-09 11:50:00,41.4,31.3,30.34,North,355,1.0,1.0,67,0.00,,,0.00,Wunderground v.1.15,2013-02-09 16:50:00,
2013-02-09 11:55:00,41.9,31.0,30.34,North,355,0.0,3.0,65,0.00,,,0.00,Wunderground v.1.15,2013-02-09 16:55:00,
2013-02-09 12:00:00,42.3,31.4,30.34,North,355,0.0,1.0,65,0.00,,,0.00,Wunderground v.1.15,2013-02-09 17:00:00,
2013-02-09 12:05:00,42.8,31.8,30.34,North,355,0.0,2.0,65,0.00,,,0.00,Wunderground v.1.15,2013-02-09 17:05:00,
2013-02-09 12:10:00,43.3,32.3,30.33,North,355,0.0,1.0,65,0.00,,,0.00,Wunderground v.1.15,2013-02-09 17:10:00,
2013-02-09 12:16:00,43.8,32.0,30.33,North,355,0.0,3.0,63,0.00,,,0.00,Wunderground v.1.15,2013-02-09 17:16:00,
2013-02-09 12:21:00,44.3,31.7,30.33,North,355,2.0,4.0,61,0.00,,,0.00,Wunderground v.1.15,2013-02-09 17:21:00,
2013-02-09 12:26:00,44.6,31.6,30.33,North,355,0.0,4.0,60,0.00,,,0.00,Wunderground v.1.15,2013-02-09 17:26:00,
2013-02-09 12:31:00,45.0,31.9,30.33,North,355,0.0,2.0,60,0.00,,,0.00,Wunderground v.1.15,2013-02-09 17:31:00,
2013-02-09 12:36:00,45.2,31.7,30.33,North,355,3.0,3.0,59,0.00,,,0.00,Wunderground v.1.15,2013-02-09 17:36:00,
2013-02-09 12:41:00,45.6,32.1,30.33,North,355,1.0,2.0,59,0.00,,,0.00,Wunderground v.1.15,2013-02-09 17:41:00,
2013-02-09 12:46:00,46.1,32.1,30.33,North,355,0.0,3.0,58,0.00,,,0.00,Wunderground v.1.15,2013-02-09 17:46:00,
2013-02-09 12:51:00,46.5,32.1,30.33,North,355,1.0,2.0,57,0.00,,,0.00,Wunderground v.1.15,2013-02-09 17:51:00,
2013-02-09 12:56:00,47.2,32.3,30.33,North,360,0.0,3.0,56,0.00,,,0.00,Wunderground v.1.15,2013-02-09 17:56:00,
2013-02-09 13:01:00,47.5,32.1,30.32,North,360,0.0,2.0,55,0.00,,,0.00,Wunderground v.1.15,2013-02-09 18:01:00,
2013-02-09 13:06:00,47.9,32.5,30.32,North,360,0.0,4.0,55,0.00,,,0.00,Wunderground v.1.15,2013-02-09 18:06:00,
2013-02-09 13:11:00,48.4,32.0,30.32,North,360,0.0,1.0,53,0.00,,,0.00,Wunderground v.1.15,2013-02-09 18:11:00,
2013-02-09 13:16:00,48.9,31.5,30.32,North,360,0.0,3.0,51,0.00,,,0.00,Wunderground v.1.15,2013-02-09 18:16:00,
2013-02-09 13:21:00,49.3,31.4,30.31,North,360,2.0,2.0,50,0.00,,,0.00,Wunderground v.1.15,2013-02-09 18:21:00,
2013-02-09 13:26:00,49.8,31.4,30.31,North,360,0.0,3.0,49,0.00,,,0.00,Wunderground v.1.15,2013-02-09 18:26:00,
2013-02-09 13:31:00,50.0,31.1,30.30,North,360,0.0,1.0,48,0.00,,,0.00,Wunderground v.1.15,2013-02-09 18:31:00,
2013-02-09 13:36:00,50.2,30.7,30.30,North,360,0.0,3.0,47,0.00,,,0.00,Wunderground v.1.15,2013-02-09 18:36:00,
2013-02-09 13:41:00,50.6,31.1,30.30,North,360,0.0,1.0,47,0.00,,,0.00,Wunderground v.1.15,2013-02-09 18:41:00,
2013-02-09 13:46:00,51.1,31.0,30.29,North,360,0.0,2.0,46,0.00,,,0.00,Wunderground v.1.15,2013-02-09 18:46:00,
2013-02-09 13:51:00,51.7,30.5,30.29,North,360,0.0,2.0,44,0.00,,,0.00,Wunderground v.1.15,2013-02-09 18:51:00,
2013-02-09 13:56:00,52.1,29.7,30.29,North,360,0.0,4.0,42,0.00,,,0.00,Wunderground v.1.15,2013-02-09 18:56:00,
2013-02-09 14:01:00,52.2,29.2,30.28,North,10,1.0,1.0,41,0.00,,,0.00,Wunderground v.1.15,2013-02-09 19:01:00,
2013-02-09 14:06:00,52.4,30.0,30.28,North,10,0.0,3.0,42,0.00,,,0.00,Wunderground v.1.15,2013-02-09 19:06:00,
2013-02-09 14:11:00,52.8,30.3,30.28,North,10,0.0,1.0,42,0.00,,,0.00,Wunderground v.1.15,2013-02-09 19:11:00,
2013-02-09 14:16:00,53.2,29.5,30.28,North,10,0.0,2.0,40,0.00,,,0.00,Wunderground v.1.15,2013-02-09 19:16:00,
2013-02-09 14:21:00,53.5,29.7,30.28,North,10,0.0,0.0,40,0.00,,,0.00,Wunderground v.1.15,2013-02-09 19:21:00,
2013-02-09 14:26:00,53.9,30.7,30.27,North,10,2.0,3.0,41,0.00,,,0.00,Wunderground v.1.15,2013-02-09 19:26:00,
2013-02-09 14:31:00,54.1,30.3,30.27,North,11,0.0,2.0,40,0.00,,,0.00,Wunderground v.1.15,2013-02-09 19:31:00,
2013-02-09 14:36:00,54.2,30.4,30.27,NNE,12,0.0,3.0,40,0.00,,,0.00,Wunderground v.1.15,2013-02-09 19:36:00,
2013-02-09 14:41:00,54.4,30.6,30.26,NNE,12,0.0,4.0,40,0.00,,,0.00,Wunderground v.1.15,2013-02-09 19:41:00,
2013-02-09 14:46:00,54.8,31.5,30.26,NNE,12,3.0,4.0,41,0.00,,,0.00,Wunderground v.1.15,2013-02-09 19:46:00,
2013-02-09 14:51:00,54.9,31.0,30.26,NNE,21,0.0,1.0,40,0.00,,,0.00,Wunderground v.1.15,2013-02-09 19:51:00,
2013-02-09 14:56:00,55.2,31.9,30.26,NNE,21,0.0,1.0,41,0.00,,,0.00,Wunderground v.1.15,2013-02-09 19:56:00,
2013-02-09 15:01:00,55.6,31.6,30.26,NNE,21,0.0,0.0,40,0.00,,,0.00,Wunderground v.1.15,2013-02-09 20:01:00,
2013-02-09 15:06:00,56.0,32.0,30.26,NNE,21,0.0,2.0,40,0.00,,,0.00,Wunderground v.1.15,2013-02-09 20:06:00,
2013-02-09 15:11:00,56.4,31.7,30.26,NNE,22,3.0,3.0,39,0.00,,,0.00,Wunderground v.1.15,2013-02-09 20:11:00,
2013-02-09 15:16:00,56.5,31.2,30.26,NNE,24,0.0,3.0,38,0.00,,,0.00,Wunderground v.1.15,2013-02-09 20:16:00,
2013-02-09 15:21:00,56.7,31.4,30.26,NNE,22,3.0,3.0,38,0.00,,,0.00,Wunderground v.1.15,2013-02-09 20:21:00,
2013-02-09 15:26:00,56.8,30.8,30.26,NNE,19,0.0,3.0,37,0.00,,,0.00,Wunderground v.1.15,2013-02-09 20:26:00,
2013-02-09 15:31:00,56.9,30.9,30.26,NNE,19,0.0,0.0,37,0.00,,,0.00,Wunderground v.1.15,2013-02-09 20:31:00,
2013-02-09 15:36:00,57.2,31.8,30.26,NNE,19,0.0,2.0,38,0.00,,,0.00,Wunderground v.1.15,2013-02-09 20:36:00,
2013-02-09 15:41:00,57.8,31.7,30.26,NNE,19,0.0,1.0,37,0.00,,,0.00,Wunderground v.1.15,2013-02-09 20:41:00,
2013-02-09 15:46:00,58.2,31.3,30.25,NNE,19,1.0,1.0,36,0.00,,,0.00,Wunderground v.1.15,2013-02-09 20:46:00,
2013-02-09 15:51:00,58.1,31.3,30.25,NNE,20,0.0,1.0,36,0.00,,,0.00,Wunderground v.1.15,2013-02-09 20:51:00,
2013-02-09 15:56:00,58.2,31.3,30.26,NNE,21,0.0,1.0,36,0.00,,,0.00,Wunderground v.1.15,2013-02-09 20:56:00,
2013-02-09 16:01:00,58.4,30.8,30.26,NNE,21,0.0,1.0,35,0.00,,,0.00,Wunderground v.1.15,2013-02-09 21:01:00,
2013-02-09 16:06:00,58.8,32.6,30.26,NNE,21,0.0,1.0,37,0.00,,,0.00,Wunderground v.1.15,2013-02-09 21:06:00,
2013-02-09 16:11:00,59.0,30.6,30.26,NNE,18,0.0,1.0,34,0.00,,,0.00,Wunderground v.1.15,2013-02-09 21:11:00,
2013-02-09 16:16:00,59.0,30.6,30.26,NNE,18,0.0,1.0,34,0.00,,,0.00,Wunderground v.1.15,2013-02-09 21:16:00,
2013-02-09 16:21:00,59.6,31.9,30.26,NNE,18,0.0,0.0,35,0.00,,,0.00,Wunderground v.1.15,2013-02-09 21:21:00,
2013-02-09 16:26:00,60.4,32.6,30.25,NNE,18,0.0,1.0,35,0.00,,,0.00,Wunderground v.1.15,2013-02-09 21:26:00,
2013-02-09 16:31:00,61.1,31.8,30.25,NNE,18,0.0,0.0,33,0.00,,,0.00,Wunderground v.1.15,2013-02-09 21:31:00,
2013-02-09 16:36:00,60.7,30.6,30.25,NNE,18,0.0,2.0,32,0.00,,,0.00,Wunderground v.1.15,2013-02-09 21:36:00,
2013-02-09 16:41:00,60.0,30.8,30.25,NNE,18,0.0,1.0,33,0.00,,,0.00,Wunderground v.1.15,2013-02-09 21:41:00,
2013-02-09 16:46:00,59.2,30.1,30.25,NNE,18,0.0,1.0,33,0.00,,,0.00,Wunderground v.1.15,2013-02-09 21:46:00,
2013-02-09 16:51:00,59.0,29.9,30.25,NNE,18,0.0,1.0,33,0.00,,,0.00,Wunderground v.1.15,2013-02-09 21:51:00,
2013-02-09 16:56:00,58.9,29.8,30.25,NNE,18,0.0,1.0,33,0.00,,,0.00,Wunderground v.1.15,2013-02-09 21:56:00,
2013-02-09 17:01:00,58.4,29.4,30.25,NNE,18,0.0,1.0,33,0.00,,,0.00,Wunderground v.1.15,2013-02-09 22:01:00,
2013-02-09 17:06:00,57.8,28.9,30.25,SE,135,1.0,4.0,33,0.00,,,0.00,Wunderground v.1.15,2013-02-09 22:06:00,
2013-02-09 17:11:00,57.2,27.6,30.26,SE,141,4.0,4.0,32,0.00,,,0.00,Wunderground v.1.15,2013-02-09 22:11:00,
2013-02-09 17:16:00,56.6,25.5,30.26,SSE,151,0.0,5.0,30,0.00,,,0.00,Wunderground v.1.15,2013-02-09 22:16:00,
2013-02-09 17:21:00,56.1,26.6,30.26,SSE,151,0.0,4.0,32,0.00,,,0.00,Wunderground v.1.15,2013-02-09 22:21:00,
2013-02-09 17:26:00,55.8,24.8,30.26,SSW,197,3.0,5.0,30,0.00,,,0.00,Wunderground v.1.15,2013-02-09 22:26:00,
2013-02-09 17:31:00,55.7,25.5,30.26,SSW,197,0.0,1.0,31,0.00,,,0.00,Wunderground v.1.15,2013-02-09 22:31:00,
2013-02-09 17:36:00,55.4,24.4,30.26,SSW,197,0.0,1.0,30,0.00,,,0.00,Wunderground v.1.15,2013-02-09 22:36:00,
2013-02-09 17:41:00,55.0,26.4,30.26,SE,138,5.0,5.0,33,0.00,,,0.00,Wunderground v.1.15,2013-02-09 22:41:00,
2013-02-09 17:46:00,54.5,27.4,30.26,SE,144,0.0,5.0,35,0.00,,,0.00,Wunderground v.1.15,2013-02-09 22:46:00,
2013-02-09 17:51:00,53.8,26.1,30.26,SE,144,0.0,1.0,34,0.00,,,0.00,Wunderground v.1.15,2013-02-09 22:51:00,
2013-02-09 17:56:00,53.3,24.2,30.26,SE,144,0.0,1.0,32,0.00,,,0.00,Wunderground v.1.15,2013-02-09 22:56:00,
2013-02-09 18:01:00,53.2,24.8,30.26,SE,144,2.0,4.0,33,0.00,,,0.00,Wunderground v.1.15,2013-02-09 23:01:00,
2013-02-09 18:06:00,53.0,24.6,30.26,SE,145,4.0,6.0,33,0.00,,,0.00,Wunderground v.1.15,2013-02-09 23:06:00,
2013-02-09 18:11:00,52.8,24.5,30.26,SSE,147,1.0,5.0,33,0.00,,,0.00,Wunderground v.1.15,2013-02-09 23:11:00,
2013-02-09 18:16:00,52.6,23.5,30.26,SE,145,1.0,5.0,32,0.00,,,0.00,Wunderground v.1.15,2013-02-09 23:16:00,
2013-02-09 18:22:00,52.3,23.3,30.27,SE,146,0.0,2.0,32,0.00,,,0.00,Wunderground v.1.15,2013-02-09 23:22:00,
2013-02-09 18:26:00,52.1,24.6,30.27,SE,146,0.0,5.0,34,0.00,,,0.01,Wunderground v.1.15,2013-02-09 23:26:00,
2013-02-09 18:31:00,51.7,24.2,30.27,SE,146,0.0,1.0,34,0.00,,,0.01,Wunderground v.1.15,2013-02-09 23:31:00,
2013-02-09 18:37:00,51.2,24.5,30.27,South,173,0.0,6.0,35,0.00,,,0.01,Wunderground v.1.15,2013-02-09 23:37:00,
2013-02-09 18:42:00,50.7,24.7,30.27,SSE,165,0.0,4.0,36,0.00,,,0.01,Wunderground v.1.15,2013-02-09 23:42:00,
2013-02-09 18:47:00,50.4,24.4,30.27,SE,138,2.0,6.0,36,0.00,,,0.01,Wunderground v.1.15,2013-02-09 23:47:00,
2013-02-09 18:52:00,50.3,25.0,30.28,SSE,154,4.0,5.0,37,0.00,,,0.01,Wunderground v.1.15,2013-02-09 23:52:00,
2013-02-09 18:57:00,50.1,25.5,30.28,SSE,148,0.0,6.0,38,0.00,,,0.01,Wunderground v.1.15,2013-02-09 23:57:00,
2013-02-09 19:02:00,49.7,25.1,30.28,SSE,153,1.0,5.0,38,0.00,,,0.01,Wunderground v.1.15,2013-02-10 00:02:00,
2013-02-09 19:07:00,49.6,25.6,30.28,SSE,149,4.0,9.0,39,0.00,,,0.01,Wunderground v.1.15,2013-02-10 00:07:00,
2013-02-09 19:12:00,49.5,25.5,30.28,SSE,161,4.0,5.0,39,0.00,,,0.01,Wunderground v.1.15,2013-02-10 00:12:00,
2013-02-09 19:17:00,49.4,25.4,30.29,SE,144,4.0,8.0,39,0.00,,,0.01,Wunderground v.1.15,2013-02-10 00:17:00,
2013-02-09 19:22:00,49.4,25.4,30.29,SSE,164,5.0,7.0,39,0.00,,,0.01,Wunderground v.1.15,2013-02-10 00:22:00,
2013-02-09 19:27:00,49.3,25.4,30.29,SSE,150,4.0,10.0,39,0.00,,,0.01,Wunderground v.1.15,2013-02-10 00:27:00,
2013-02-09 19:32:00,49.2,25.9,30.29,SE,142,4.0,8.0,40,0.00,,,0.01,Wunderground v.1.15,2013-02-10 00:32:00,
2013-02-09 19:37:00,49.1,25.8,30.29,SSE,149,6.0,9.0,40,0.00,,,0.01,Wunderground v.1.15,2013-02-10 00:37:00,
2013-02-09 19:42:00,48.8,25.5,30.29,SSE,165,8.0,10.0,40,0.00,,,0.01,Wunderground v.1.15,2013-02-10 00:42:00,
2013-02-09 19:47:00,48.7,24.8,30.29,SSE,160,8.0,12.0,39,0.00,,,0.01,Wunderground v.1.15,2013-02-10 00:47:00,
2013-02-09 19:52:00,48.6,24.7,30.30,SE,143,8.0,12.0,39,0.00,,,0.01,Wunderground v.1.15,2013-02-10 00:52:00,
2013-02-09 19:57:00,48.5,24.6,30.30,SSE,156,10.0,14.0,39,0.00,,,0.01,Wunderground v.1.15,2013-02-10 00:57:00,
2013-02-09 20:02:00,48.4,24.6,30.30,SSE,161,10.0,10.0,39,0.00,,,0.01,Wunderground v.1.15,2013-02-10 01:02:00,
2013-02-09 20:07:00,48.4,25.2,30.30,SSE,151,9.0,13.0,40,0.00,,,0.01,Wunderground v.1.15,2013-02-10 01:07:00,
2013-02-09 20:12:00,48.3,24.5,30.30,SE,146,8.0,13.0,39,0.00,,,0.01,Wunderground v.1.15,2013-02-10 01:12:00,
2013-02-09 20:17:00,48.4,24.6,30.30,SE,144,4.0,14.0,39,0.00,,,0.01,Wunderground v.1.15,2013-02-10 01:17:00,
2013-02-09 20:22:00,48.4,24.6,30.30,SSE,148,7.0,11.0,39,0.00,,,0.01,Wunderground v.1.15,2013-02-10 01:22:00,
2013-02-09 20:27:00,48.4,24.6,30.30,SE,144,5.0,13.0,39,0.00,,,0.01,Wunderground v.1.15,2013-02-10 01:27:00,
2013-02-09 20:32:00,48.4,24.6,30.30,SE,142,9.0,11.0,39,0.00,,,0.01,Wunderground v.1.15,2013-02-10 01:32:00,
2013-02-09 20:37:00,48.3,24.5,30.30,SSE,152,6.0,12.0,39,0.00,,,0.01,Wunderground v.1.15,2013-02-10 01:37:00,
2013-02-09 20:42:00,48.2,25.0,30.30,SSE,156,5.0,12.0,40,0.00,,,0.01,Wunderground v.1.15,2013-02-10 01:42:00,
2013-02-09 20:47:00,48.1,24.3,30.30,SE,132,5.0,12.0,39,0.00,,,0.01,Wunderground v.1.15,2013-02-10 01:47:00,
2013-02-09 20:52:00,48.0,24.8,30.30,SSE,163,5.0,10.0,40,0.00,,,0.01,Wunderground v.1.15,2013-02-10 01:52:00,
2013-02-09 20:57:00,47.9,25.3,30.31,SSE,157,5.0,16.0,41,0.00,,,0.01,Wunderground v.1.15,2013-02-10 01:57:00,
2013-02-09 21:02:00,47.8,25.2,30.30,SE,136,6.0,9.0,41,0.00,,,0.01,Wunderground v.1.15,2013-02-10 02:02:00,
2013-02-09 21:07:00,47.6,25.0,30.30,SE,146,2.0,9.0,41,0.00,,,0.01,Wunderground v.1.15,2013-02-10 02:07:00,
2013-02-09 21:12:00,47.5,24.9,30.31,ESE,123,2.0,9.0,41,0.00,,,0.01,Wunderground v.1.15,2013-02-10 02:12:00,
2013-02-09 21:17:00,47.5,24.9,30.31,ESE,114,2.0,9.0,41,0.00,,,0.01,Wunderground v.1.15,2013-02-10 02:17:00,
2013-02-09 21:22:00,47.3,25.3,30.31,SSE,147,0.0,6.0,42,0.00,,,0.01,Wunderground v.1.15,2013-02-10 02:22:00,
2013-02-09 21:27:00,47.0,25.1,30.31,ESE,113,0.0,6.0,42,0.00,,,0.01,Wunderground v.1.15,2013-02-10 02:27:00,
2013-02-09 21:32:00,46.7,24.8,30.31,ESE,103,0.0,5.0,42,0.00,,,0.01,Wunderground v.1.15,2013-02-10 02:32:00,
2013-02-09 21:37:00,46.4,25.1,30.30,ESE,122,0.0,6.0,43,0.00,,,0.01,Wunderground v.1.15,2013-02-10 02:37:00,
2013-02-09 21:42:00,46.0,25.3,30.30,East,88,3.0,7.0,44,0.00,,,0.01,Wunderground v.1.15,2013-02-10 02:42:00,
2013-02-09 21:47:00,45.8,25.6,30.30,ENE,64,0.0,7.0,45,0.00,,,0.01,Wunderground v.1.15,2013-02-10 02:47:00,
2013-02-09 21:52:00,45.4,25.8,30.30,ESE,107,0.0,2.0,46,0.00,,,0.01,Wunderground v.1.15,2013-02-10 02:52:00,
2013-02-09 21:57:00,45.0,25.4,30.30,East,90,5.0,7.0,46,0.00,,,0.01,Wunderground v.1.15,2013-02-10 02:57:00,
2013-02-09 22:02:00,45.0,25.4,30.30,SE,125,5.0,9.0,46,0.00,,,0.01,Wunderground v.1.15,2013-02-10 03:02:00,
2013-02-09 22:07:00,45.3,25.7,30.30,ESE,113,5.0,11.0,46,0.00,,,0.01,Wunderground v.1.15,2013-02-10 03:07:00,
2013-02-09 22:12:00,45.5,25.9,30.30,SE,144,7.0,12.0,46,0.00,,,0.01,Wunderground v.1.15,2013-02-10 03:12:00,
2013-02-09 22:17:00,45.5,25.9,30.30,SE,124,4.0,12.0,46,0.00,,,0.01,Wunderground v.1.15,2013-02-10 03:17:00,
2013-02-09 22:22:00,45.5,25.9,30.30,ESE,102,0.0,7.0,46,0.00,,,0.01,Wunderground v.1.15,2013-02-10 03:22:00,
2013-02-09 22:27:00,45.4,25.8,30.30,SE,144,0.0,8.0,46,0.00,,,0.01,Wunderground v.1.15,2013-02-10 03:27:00,
2013-02-09 22:32:00,45.4,25.3,30.31,ESE,113,2.0,8.0,45,0.00,,,0.01,Wunderground v.1.15,2013-02-10 03:32:00,
2013-02-09 22:37:00,45.4,25.3,30.31,SE,128,0.0,8.0,45,0.00,,,0.01,Wunderground v.1.15,2013-02-10 03:37:00,
2013-02-09 22:42:00,45.3,25.7,30.31,ENE,59,0.0,5.0,46,0.00,,,0.01,Wunderground v.1.15,2013-02-10 03:42:00,
2013-02-09 22:47:00,45.3,25.7,30.31,SSE,161,5.0,6.0,46,0.00,,,0.01,Wunderground v.1.15,2013-02-10 03:47:00,
2013-02-09 22:52:00,45.2,25.6,30.31,East,83,0.0,7.0,46,0.00,,,0.01,Wunderground v.1.15,2013-02-10 03:52:00,
2013-02-09 22:57:00,45.2,25.6,30.31,ESE,104,0.0,7.0,46,0.00,,,0.01,Wunderground v.1.15,2013-02-10 03:57:00,
2013-02-09 23:02:00,45.2,25.6,30.31,East,82,0.0,3.0,46,0.00,,,0.01,Wunderground v.1.15,2013-02-10 04:02:00,
2013-02-09 23:07:00,45.1,25.5,30.31,East,90,4.0,6.0,46,0.00,,,0.01,Wunderground v.1.15,2013-02-10 04:07:00,
2013-02-09 23:12:00,45.2,25.6,30.31,East,83,0.0,3.0,46,0.00,,,0.01,Wunderground v.1.15,2013-02-10 04:12:00,
2013-02-09 23:17:00,45.2,25.6,30.31,NNE,22,3.0,6.0,46,0.00,,,0.01,Wunderground v.1.15,2013-02-10 04:17:00,
2013-02-09 23:22:00,45.2,25.6,30.31,ENE,59,2.0,4.0,46,0.00,,,0.01,Wunderground v.1.15,2013-02-10 04:22:00,
2013-02-09 23:27:00,45.2,25.6,30.31,NE,55,3.0,5.0,46,0.00,,,0.01,Wunderground v.1.15,2013-02-10 04:27:00,
2013-02-09 23:32:00,45.4,25.8,30.31,ENE,61,4.0,6.0,46,0.00,,,0.01,Wunderground v.1.15,2013-02-10 04:32:00,
2013-02-09 23:37:00,45.4,26.3,30.31,NNE,33,0.0,6.0,47,0.00,,,0.01,Wunderground v.1.15,2013-02-10 04:37:00,
2013-02-09 23:42:00,45.2,26.1,30.31,ENE,64,0.0,5.0,47,0.00,,,0.01,Wunderground v.1.15,2013-02-10 04:42:00,
2013-02-09 23:47:00,45.1,26.1,30.31,ENE,69,3.0,5.0,47,0.00,,,0.01,Wunderground v.1.15,2013-02-10 04:47:00,
2013-02-09 23:52:00,45.2,25.6,30.31,ENE,61,4.0,10.0,46,0.00,,,0.01,Wunderground v.1.15,2013-02-10 04:52:00,
2013-02-09 23:57:00,45.3,25.7,30.31,East,86,2.0,10.0,46,0.00,,,0.01,Wunderground v.1.15,2013-02-10 04:57:00,